Regional Weather Roundup
Issued by NWS

Home | Current Version | Previous Version | Text Only | Print | Product List | Glossary On
Versions: 1 2 3 4 5 6 7 8 9 10 11 12 13 14 15 16 17 18 19 20 21 22 23 24 25 26 27 28 29 30 31 32 33 34 35 36 37 38 39 40 41 42 43 44 45 46 47 48 49 50
000
ASUS43 KMPX 260601
RWRMN
WEATHER ROUNDUP FOR MINNESOTA
NATIONAL WEATHER SERVICE TWIN CITIES/CHANHASSEN MN
100 AM CDT MON SEP 26 2016


NOTE: "FAIR" INDICATES FEW OR NO CLOUDS BELOW 12,000 FEET WITH NO
SIGNIFICANT WEATHER AND/OR OBSTRUCTIONS TO VISIBILITY. N/A MEANS
CURRENT SKY AND/OR WEATHER CONDITIONS ARE NOT AVAILABLE.

MNZ060>063-068>070-260700-
   Twin Cities Metro

CITY           SKY/WX    TMP DP  RH WIND       PRES   REMARKS
TWIN CITIES    MOCLDY    56  44  64 W10       29.97F
6HR MIN TEMP:  55; 6HR MAX TEMP:  61;

ST PAUL        PTCLDY    55  44  66 W10       29.97F
CRYSTAL        CLOUDY    54  42  64 W10       29.95F
BLAINE         MOCLDY    55  45  67 W10       29.95F
LAKEVILLE      MOCLDY    52  45  76 W6        29.98F
EDEN PRAIRIE   MOCLDY    53  45  74 W8        29.97F
6HR MIN TEMP:  52; 6HR MAX TEMP:  61;

LAKEVILLE      MOCLDY    52  45  76 W6        29.98F
SOUTH ST PAUL  PTCLDY    56  44  64 SW6       29.97S
LAKE ELMO      MOCLDY    54  45  71 W13       29.96F
$$
MNZ001>005-007-008-013>017-022>024-027-028-260700-
   Northwest Minnesota

CITY           SKY/WX    TMP DP  RH WIND       PRES   REMARKS
BEMIDJI        RAIN      48  46  90 W16G24    29.85F
HALLOCK        PTCLDY    52  43  71 W16G23    29.88S
ROSEAU         DRIZZLE   50  45  81 W10G18    29.80F
THIEF RVR FALL CLOUDY    51  43  74 W15       29.89S
CROOKSTON      PTCLDY    52  45  76 NW16      29.92S
FOSSTON        CLOUDY    48  45  87 W14       29.90F
DETROIT LAKES  CLOUDY    52  43  71 W13       29.94F
MOORHEAD       PTCLDY    54  37  54 W16       29.98S
PARK RAPIDS    CLOUDY    50  45  83 W13       29.90F
MAHNOMEN       FAIR      49  46  86 W15       29.91F
$$
MNZ006-009>011-018-025>026-260700-
   North Central Minnesota

CITY           SKY/WX    TMP DP  RH WIND       PRES   REMARKS
BAUDETTE       RAIN      50  48  93 NW17G35   29.73S
FLAG ISLAND    LGT RAIN  52  48  87 NW25G35   29.71S
INTL FALLS     CLOUDY    51  49  92 W16G24    29.66F
6HR MIN TEMP:  51; 6HR MAX TEMP:  55; 6HR PCP:  0.01;

WASKISH        LGT RAIN  50  48  93 W22G37    29.78S
BIG FORK       RAIN      50  46  87 W7G20     29.74F
GRAND RAPIDS   LGT RAIN  50  47  89 NW18G25   29.79F
ORR            DRIZZLE   50  46  87 W10       29.66F
COOK           DRIZZLE   50  48  93 W12       29.69F
WALKER         RAIN      48  45  88 W13G21    29.86S
$$
MNZ012-019>021-037-260700-
   Northeast Minnesota

CITY           SKY/WX    TMP DP  RH WIND       PRES   REMARKS
DULUTH         DRIZZLE   50  49  96 W20       29.75F
6HR MIN TEMP:  50; 6HR MAX TEMP:  57; 6HR PCP:  0.01;

ELY            DRIZZLE   50  48  93 SW10      29.66F
HIBBING        LGT RAIN  49  48  97 W9        29.72F FOG
EVELETH        DRIZZLE   53  51  94 W10G16    29.72F
DULUTH HARBOR  CLOUDY    55  50  82 SW21G26   29.76F
TWO HARBORS    CLOUDY    54  48  82 SW9G16    29.70F
SILVER BAY     CLOUDY    54  50  87 SW6       29.68F
GRAND MARAIS     N/A     57  54  89 W5        29.65F
G MARAIS ARPRT CLOUDY    52  46  82 SW8       29.66F
$$
MNZ029>031-032-039>041-046>048-054>057-064-260700-
   West Central Minnesota

CITY           SKY/WX    TMP DP  RH WIND       PRES   REMARKS
FERGUS FALLS   CLOUDY    48  41  76 W13       30.00F
MORRIS         PTCLDY    52  39  62 W10       30.01F
ALEXANDRIA     MOCLDY    50  46  86 W9        29.99F
ELBOW LAKE     FAIR      51  41  68 NW10      30.00F
GLENWOOD       CLOUDY    50  45  81 W8        30.00F
BENSON         PTCLDY    48  39  71 W10       30.02F
MADISON          N/A     55  39  54 W10       30.06S
WILLMAR        FAIR      54  43  66 W13       30.02F
$$
MNZ033>034-036-042>043-049>051-058-059-260700-
   Central Minnesota

CITY           SKY/WX    TMP DP  RH WIND       PRES   REMARKS
ST CLOUD       CLOUDY    52  47  83 W10       29.96S
6HR MIN TEMP:  52; 6HR MAX TEMP:  58; 6HR PCP: TRACE;

SAUK CENTRE    CLOUDY    51  45  81 W9        29.98F
PAYNESVILLE    CLOUDY    51  44  76 W7        30.00S
AITKIN         MIX PCPN  52  45  76 W9G20     29.83F
PINE RIVER     DRIZZLE   48  46  93 W8G17     29.92S
BRAINERD       LGT RAIN  50  47  89 W15G23    29.90F
STAPLES        CLOUDY    48  46  93 W10G18    29.93F
LONG PRAIRIE   FAIR      50  43  76 SW9G16    29.96F
LITTLE FALLS   DRIZZLE   50  45  81 W10G16    29.94F
LITCHFIELD     MOCLDY    54  46  76 W3        30.00F
BUFFALO        LGT RAIN  54  44  69 W16G22    29.99S
MAPLE LAKE     LGT RAIN  54  47  79 W9        29.99S
HUTCHINSON     PTCLDY    51  44  79 W7        30.02S
$$
MNZ037-044-045-052-053-260700-
   East Central Minnesota

CITY           SKY/WX    TMP DP  RH WIND       PRES   REMARKS
PRINCETON      DRIZZLE   54  46  76 W20G28    29.94S
MORA           LGT RAIN  50  43  76 W13       29.91S
CAMBRIDGE      CLOUDY    55  43  62 W13       29.90F
MOOSE LAKE     CLOUDY    50  45  81 W10G20    29.81F
HINCKLEY       CLOUDY    54  45  71 W13G22    29.86F
CLOQUET        DRIZZLE   50  46  87 W14       29.78F
MCGREGOR       CLOUDY    50  46  87 W13G21    29.83F
$$
MNZ071>073-080-081-089-090-097-098-260700-
   Southwest Minnesota

CITY           SKY/WX    TMP DP  RH WIND       PRES   REMARKS
MONTEVIDEO     CLEAR     54  39  58 NW12G18   30.05F
GRANITE FALLS  CLEAR     53  41  62 W14       30.06F
CANBY          CLEAR     53  38  58 NW15      30.09S
MARSHALL       CLEAR     54  37  52 W17       30.08S
REDWOOD FALLS  CLEAR     54  38  54 W17G24    30.04S
OLIVIA         CLEAR     52  41  66 W7        30.03R
PIPESTONE      CLEAR     48  37  66 W7        30.13F
WINDOM         CLEAR     52  39  62 W10G16    30.09S
WORTHINGTON    CLEAR     48  39  71 W10       30.13F
JACKSON        CLEAR     52  36  54 W13       30.10F
TRACY          CLEAR     53  40  61 W7        30.09S
$$
MNZ065>067-074>077-082>085-091>093-260700-
   South Central Minnesota

CITY           SKY/WX    TMP DP  RH WIND       PRES   REMARKS
MANKATO        CLEAR     53  41  63 W12       30.03
ST JAMES       CLEAR     54  39  58 W10G17    30.07S
FAIRMONT       CLEAR     52  41  66 W10       30.08F
GLENCOE        MOCLDY    52  46  77 W6        30.00S
FARIBAULT      CLEAR     54  43  66 W9G17     30.01F
OWATONNA       CLEAR     52  43  71 W8        30.02S
WASECA         CLEAR     52  45  76 SW8       30.04S
ALBERT LEA     CLEAR     54  43  66 W7        30.04F
$$
MNZ078>079-086>088-094>096-260700-
   Southeast Minnesota

CITY           SKY/WX    TMP DP  RH WIND       PRES   REMARKS
ROCHESTER      CLEAR     52  46  80 W9        30.01F
6HR MIN TEMP:  52; 6HR MAX TEMP:  58;

RED WING       CLEAR     54  46  76 W7        29.96F
STANTON        PTCLDY    53  43  69 W6        29.98F
DODGE CENTER   CLEAR     50  45  81 W9        30.01S
WINONA         CLEAR     55  46  71 W8        29.98S
AUSTIN         CLEAR     52  43  71 W9        30.03F
PRESTON        CLEAR     51  46  82 W9        30.01F
$$
ABBREVIATIONS USED IN REMARKS
   TC - TEMPERATURES IN CELSIUS
  WCI - WIND CHILL INDEX
   HX - HEAT INDEX
  VSB - VISIBILITY
$$




USA.gov is the U.S. government's official web portal to all federal, state and local government web resources and services.